Home > Weather > Tokyo > Past weeks

Flag for Japan Past Weather in Tokyo, Japan — Yesterday and Last 2 Weeks

Now
76 °F

Mild.


Feels Like: 75 °F
Forecast: 74 / 86 °F
Wind: 3 mph from South

Location: Tokyo

Current Time: Jul 28, 2016 at 6:22:08 AM

Latest Report: Jul 28, 2016 at 5:00 AM


Visibility: N/A

Pressure: 29.90 "Hg

Humidity: 88%

Dew Point: 72 °F

Location of TokyoLocation

Past Weather in Tokyo — Graph

°F

Tokyo Temperature Yesterday

Maximum temperature yesterday: 80 °F (at 12:00 PM)
Minimum temperature yesterday: 72 °F (at 12:00 AM)
Average temperature yesterday: 76 °F

High & Low Weather Summary for the Past Weeks

 TemperatureHumidityPressure
High92 °F (Jul 18, 2:00 PM)100% (Jul 13, 8:00 PM)30.01 "Hg (Jul 13, 8:00 PM)
Low67 °F (Jul 24, 3:00 AM)53% (Jul 18, 3:00 PM)29.35 "Hg (Jul 14, 2:00 PM)
Average76 °F83%29.80 "Hg
* Reported Jul 13 5:00 AM — Jul 28 5:00 AM, Tokyo, Weather by CustomWeather, © 2016

Note: Actual official high and low records may vary slightly from our data, if they occured in-between our weather recording intervals... More about our weather records

Advertising

Tokyo Weather History for the Previous 24 Hours

Scroll right to see more
 ConditionsComfort  
Time TempWeatherWind HumidityBarometerVisibility
5:00 AM
Thu, Jul 28
76 °FMild.3 mph88%29.90 "HgN/A
4:00 AM74 °FMild.5 mph90%29.89 "HgN/A
3:00 AM74 °FOvercast.5 mph91%29.88 "Hg12 mi
2:00 AM75 °FMild.5 mph88%29.88 "HgN/A
1:00 AM75 °FMild.7 mph86%29.89 "HgN/A
12:00 AM75 °FMild.2 mph85%29.89 "HgN/A
11:00 PM
Wed, Jul 27
76 °FMild.5 mph85%29.90 "HgN/A
10:00 PM75 °FMild.5 mph86%29.90 "HgN/A
9:00 PM75 °FOvercast.6 mph85%29.90 "Hg12 mi
8:00 PM76 °FMild.7 mph84%29.88 "HgN/A
7:00 PM76 °FMild.6 mph84%29.87 "HgN/A
6:00 PM77 °FPassing clouds.6 mph83%29.85 "Hg9 mi
5:00 PM78 °FWarm.6 mph80%29.84 "HgN/A
4:00 PM77 °FWarm.9 mph82%29.84 "HgN/A
3:00 PM78 °FOvercast.7 mph80%29.83 "Hg9 mi
2:00 PM78 °FWarm.9 mph76%29.84 "HgN/A
1:00 PM80 °FWarm.7 mph72%29.84 "HgN/A
12:00 PM80 °FOvercast.8 mph71%29.85 "Hg9 mi
11:00 AM79 °FWarm.10 mph72%29.85 "HgN/A
10:00 AM77 °FWarm.8 mph79%29.86 "HgN/A
9:00 AM76 °FOvercast.7 mph82%29.86 "Hg12 mi
8:00 AM74 °FMild.8 mph86%29.86 "HgN/A
7:00 AM74 °FMild.7 mph87%29.86 "HgN/A
6:00 AM74 °FOvercast.6 mph90%29.85 "Hg9 mi
Weather by CustomWeather, © 2016

See weather overviewHow to use our weather pages